Terminal Aerodrome Forecast
Issued by NWS

Home | Current Version | Previous Version | Text Only | Print | Product List | Glossary On
Versions: 1 2 3 4 5 6 7 8 9 10 11 12 13 14 15 16 17 18 19 20 21 22
000
FTUS41 KCAR 220900 AAA
TAFPQI
TAF AMD
KPQI 220925Z 2209/2306 VRB03KT P6SM SCT025 BKN040
      TEMPO 2209/2212 2SM BR SCT002
     FM222100 06004KT P6SM SCT100
      AMD LTD TO CLD VIS AND WIND=

USA.gov is the U.S. government's official web portal to all federal, state and local government web resources and services.